DAL5299 KROC-KJFK

Flight info

Callsign DAL5299
Flight time N/A
Altitude 28000
Route BEEPS Q140 YODAA IGN IGN1
Aircraft CRJ9/M-SDFGIRWY/S

Departure

Time 2026-04-25 20:52
Airport Frederick Douglass Greater Rochester International Airport (KROC)

Arrival

Time N/A
Airport John F. Kennedy International Airport (KJFK)
Time Latitude Longitude Altitude Speed Heading
2026-04-25 20:45 43.12640 -77.66452 555 ft 0 kts 60°
2026-04-25 20:46 43.12634 -77.66464 566 ft 4 kts 60°
2026-04-25 20:46 43.12628 -77.66499 560 ft 4 kts 111°
2026-04-25 20:46 43.12643 -77.66513 561 ft 0 kts 181°
2026-04-25 20:49 43.12640 -77.66513 564 ft 2 kts 181°
2026-04-25 20:49 43.12618 -77.66515 557 ft 6 kts 187°
2026-04-25 20:49 43.12567 -77.66533 561 ft 7 kts 209°
2026-04-25 20:49 43.12529 -77.66574 561 ft 9 kts 234°
2026-04-25 20:50 43.12519 -77.66655 557 ft 7 kts 268°
2026-04-25 20:50 43.12516 -77.66770 558 ft 12 kts 267°
2026-04-25 20:50 43.12514 -77.66865 560 ft 8 kts 267°
2026-04-25 20:50 43.12511 -77.66963 568 ft 12 kts 267°
2026-04-25 20:51 43.12508 -77.67057 564 ft 7 kts 268°
2026-04-25 20:51 43.12513 -77.67119 567 ft 8 kts 289°
2026-04-25 20:51 43.12528 -77.67193 572 ft 6 kts 268°
2026-04-25 20:51 43.12520 -77.67232 567 ft 3 kts 227°
2026-04-25 20:52 43.12358 -77.67368 562 ft 65 kts 211°
2026-04-25 20:52 43.12203 -77.67500 564 ft 90 kts 212°
2026-04-25 20:52 43.10838 -77.68650 687 ft 173 kts 207°
2026-04-25 20:52 43.09836 -77.69431 1747 ft 155 kts 204°
2026-04-25 20:53 43.08845 -77.70148 2388 ft 176 kts 200°
2026-04-25 20:53 43.07525 -77.70517 2704 ft 215 kts 177°
2026-04-25 20:53 43.06031 -77.69868 3296 ft 243 kts 146°
2026-04-25 20:53 43.04896 -77.68093 3920 ft 271 kts 121°
2026-04-25 20:54 43.03962 -77.65715 4544 ft 297 kts 117°
2026-04-25 20:54 43.03028 -77.63115 5137 ft 323 kts 115°
2026-04-25 20:54 43.02064 -77.60286 5716 ft 345 kts 114°
2026-04-25 20:54 43.01053 -77.57299 6277 ft 355 kts 114°
2026-04-25 20:55 43.00083 -77.54414 6775 ft 364 kts 114°
2026-04-25 20:55 42.99558 -77.52833 7023 ft 345 kts 114°
2026-04-25 20:56 42.98567 -77.49805 7495 ft 366 kts 114°
2026-04-25 20:56 42.97525 -77.46590 7991 ft 366 kts 114°
2026-04-25 20:56 42.96863 -77.44532 8321 ft 350 kts 114°
2026-04-25 20:56 42.96762 -77.44219 8374 ft 349 kts 114°
2026-04-25 20:57 42.95740 -77.41021 8937 ft 343 kts 115°
2026-04-25 20:57 42.94779 -77.37999 9447 ft 363 kts 115°
2026-04-25 20:58 42.94107 -77.35883 9822 ft 376 kts 115°
2026-04-25 20:58 42.92684 -77.31418 10499 ft 399 kts 115°
2026-04-25 20:58 42.91944 -77.29094 10833 ft 409 kts 115°
2026-04-25 20:58 42.90820 -77.25551 11329 ft 413 kts 114°
2026-04-25 20:59 42.89695 -77.22037 11788 ft 412 kts 115°
2026-04-25 20:59 42.88555 -77.18488 12418 ft 406 kts 115°
2026-04-25 20:59 42.87060 -77.13872 13269 ft 400 kts 115°
2026-04-25 20:59 42.85917 -77.10384 13905 ft 406 kts 115°
2026-04-25 21:00 42.84752 -77.06868 14495 ft 412 kts 115°
2026-04-25 21:00 42.84352 -77.05664 14687 ft 414 kts 115°
2026-04-25 21:00 42.81541 -76.97459 16115 ft 424 kts 117°
2026-04-25 21:01 42.80091 -76.93810 16765 ft 427 kts 120°
2026-04-25 21:01 42.78088 -76.89179 17632 ft 430 kts 121°
2026-04-25 21:01 42.76546 -76.85683 18273 ft 432 kts 122°
2026-04-25 21:01 42.74987 -76.82182 18855 ft 433 kts 122°
2026-04-25 21:02 42.73414 -76.78723 19442 ft 433 kts 123°
2026-04-25 21:02 42.72347 -76.76421 19835 ft 433 kts 124°
2026-04-25 21:02 42.70738 -76.72960 20438 ft 433 kts 124°
2026-04-25 21:02 42.69139 -76.69494 21058 ft 432 kts 123°
2026-04-25 21:03 42.67574 -76.66002 21682 ft 431 kts 123°
2026-04-25 21:03 42.66024 -76.62550 22324 ft 429 kts 123°
2026-04-25 21:03 42.64504 -76.59135 22973 ft 428 kts 123°
2026-04-25 21:03 42.62974 -76.55710 23626 ft 428 kts 124°
2026-04-25 21:04 42.61428 -76.52266 24181 ft 427 kts 124°
2026-04-25 21:04 42.59893 -76.48844 24753 ft 426 kts 124°
2026-04-25 21:04 42.58370 -76.45460 25334 ft 424 kts 125°
2026-04-25 21:04 42.56854 -76.42092 25928 ft 421 kts 125°
2026-04-25 21:05 42.55345 -76.38741 26530 ft 417 kts 126°
2026-04-25 21:05 42.53845 -76.35416 27144 ft 413 kts 126°
2026-04-25 21:05 42.52380 -76.32146 27638 ft 414 kts 126°
2026-04-25 21:05 42.50879 -76.28793 27847 ft 421 kts 126°
2026-04-25 21:06 42.49359 -76.25406 27956 ft 431 kts 126°
2026-04-25 21:06 42.47783 -76.21916 27999 ft 442 kts 126°
2026-04-25 21:06 42.46161 -76.18344 28013 ft 453 kts 126°
2026-04-25 21:07 42.42799 -76.10945 28026 ft 475 kts 126°
2026-04-25 21:07 42.39313 -76.03267 28021 ft 494 kts 126°
2026-04-25 21:08 42.35693 -75.95332 28009 ft 511 kts 126°
2026-04-25 21:08 42.31923 -75.87078 28019 ft 514 kts 126°
2026-04-25 21:09 42.26377 -75.74988 27991 ft 500 kts 126°
2026-04-25 21:09 42.24578 -75.71080 27994 ft 499 kts 126°
2026-04-25 21:09 42.22779 -75.67181 28000 ft 503 kts 126°
2026-04-25 21:10 42.19104 -75.59219 28009 ft 510 kts 126°
2026-04-25 21:10 42.15348 -75.51090 28017 ft 507 kts 126°
2026-04-25 21:11 42.11689 -75.43197 28029 ft 500 kts 126°
2026-04-25 21:11 42.08123 -75.35540 28027 ft 494 kts 126°
2026-04-25 21:12 42.04986 -75.27449 28040 ft 494 kts 113°
2026-04-25 21:12 42.03258 -75.20171 28047 ft 492 kts 109°
2026-04-25 21:13 42.00760 -75.10089 28057 ft 487 kts 113°
2026-04-25 21:13 41.98504 -75.01608 28079 ft 485 kts 112°
2026-04-25 21:14 41.96305 -74.93220 28082 ft 483 kts 112°
2026-04-25 21:14 41.94085 -74.84817 28056 ft 481 kts 112°
2026-04-25 21:15 41.91866 -74.76439 28049 ft 479 kts 112°
2026-04-25 21:15 41.89661 -74.68147 28062 ft 480 kts 112°
2026-04-25 21:16 41.87404 -74.59682 28089 ft 486 kts 112°
2026-04-25 21:16 41.85146 -74.51174 28083 ft 491 kts 112°
2026-04-25 21:17 41.82949 -74.42905 28042 ft 497 kts 112°
2026-04-25 21:17 41.80656 -74.34293 28009 ft 500 kts 112°
2026-04-25 21:18 41.78315 -74.25534 28015 ft 503 kts 111°
2026-04-25 21:18 41.75944 -74.16706 28055 ft 506 kts 111°
2026-04-25 21:19 41.73570 -74.07894 28035 ft 509 kts 111°
2026-04-25 21:19 41.71183 -73.99101 28028 ft 511 kts 112°
2026-04-25 21:20 41.68605 -73.92053 28005 ft 505 kts 131°
2026-04-25 21:20 41.65304 -73.87940 28010 ft 491 kts 153°
2026-04-25 21:20 41.62320 -73.85998 28027 ft 480 kts 166°
2026-04-25 21:21 41.55991 -73.83598 28025 ft 475 kts 173°
2026-04-25 21:21 41.49618 -73.82509 28032 ft 460 kts 191°
2026-04-25 21:22 41.43439 -73.83320 28042 ft 460 kts 192°
2026-04-25 21:22 41.37084 -73.83694 28028 ft 465 kts 188°
2026-04-25 21:23 41.30600 -73.83906 28040 ft 465 kts 188°